Home   Weather   Bastia   Past weeks

Flag for France Past Weather in Bastia, Corsica, France — Yesterday and Last 2 Weeks

68 °F

Passing clouds.

Feels Like: 68 °F
Forecast: 51 / 65 °F
Wind: 14 mph from Northwest

Location: Bastia Airport

Current Time: Oct 21, 2016 at 3:11:10 PM

Latest Report: Oct 21, 2016 at 2:30 PM

Visibility: N/A

Pressure: 29.83 "Hg

Humidity: 53%

Dew Point: 50 °F

Location of BastiaLocation

Past Weather in Bastia — Graph


Bastia Temperature Yesterday

Maximum temperature yesterday: 68 °F (at 11:00 AM)
Minimum temperature yesterday: 52 °F (at 8:00 AM)
Average temperature yesterday: 61 °F

High & Low Weather Summary for the Past Weeks

High73 °F (Oct 8, 12:30 PM)100% (Oct 13, 7:30 PM)30.24 "Hg (Oct 13, 7:30 PM)
Low50 °F (Oct 12, 7:00 AM)43% (Oct 21, 11:30 AM)29.65 "Hg (Oct 14, 6:30 AM)
Average62 °F78%29.96 "Hg
* Reported Oct 6 2:00 PM — Oct 21 2:00 PM, Bastia, Weather by CustomWeather, © 2016

Note: Actual official high and low records may vary slightly from our data, if they occured in-between our weather recording intervals... More about our weather records


Bastia Weather History for the Previous 24 Hours

Scroll right to see more
Time TempWeatherWind HumidityBarometerVisibility
2:00 PM
Fri, Oct 21
68 °FPassing clouds.13 mph53%29.83 "HgN/A
1:30 PM68 °FScattered clouds.12 mph53%29.86 "HgN/A
1:00 PM66 °FScattered clouds.8 mph52%29.86 "HgN/A
12:30 PM66 °FScattered clouds.5 mph52%29.86 "HgN/A
12:00 PM66 °FScattered clouds.3 mph46%29.86 "HgN/A
11:30 AM66 °FPassing clouds.8 mph43%29.86 "HgN/A
11:00 AM64 °FPassing clouds.10 mph49%29.86 "HgN/A
10:30 AM59 °FPassing clouds.13 mph55%29.83 "HgN/A
10:00 AM61 °FScattered clouds.8 mph52%29.86 "HgN/A
9:30 AM61 °FScattered clouds.10 mph48%29.83 "HgN/A
8:30 AM55 °FPassing clouds.12 mph59%29.83 "HgN/A
8:00 AM55 °FPassing clouds.14 mph59%29.80 "HgN/A
7:30 AM55 °FPassing clouds.10 mph59%29.80 "HgN/A
7:00 AM57 °FPassing clouds.6 mph55%29.80 "HgN/A
6:30 AM57 °FPassing clouds.12 mph59%29.80 "HgN/A
6:00 AM55 °FPassing clouds.13 mph63%29.80 "HgN/A
5:30 AM57 °FPassing clouds.14 mph59%29.80 "HgN/A
5:00 AM59 °FPassing clouds.13 mph55%29.80 "HgN/A
4:30 AM59 °FPassing clouds.12 mph55%29.80 "HgN/A
4:00 AM59 °FPassing clouds.13 mph55%29.83 "HgN/A
3:30 AM59 °FPassing clouds.12 mph55%29.83 "HgN/A
3:00 AM59 °FPassing clouds.10 mph59%29.83 "HgN/A
2:30 AM59 °FPartly cloudy.10 mph63%29.83 "HgN/A
2:00 AM59 °FPassing clouds.12 mph63%29.83 "HgN/A
1:30 AM59 °FPartly cloudy.10 mph63%29.83 "HgN/A
1:00 AM59 °FPartly cloudy.9 mph68%29.83 "HgN/A
12:30 AM59 °FPassing clouds.12 mph77%29.83 "HgN/A
12:00 AM57 °FPassing clouds.2 mph82%29.83 "HgN/A
11:30 PM
Thu, Oct 20
55 °FPassing clouds.2 mph94%29.83 "HgN/A
11:00 PM55 °FPassing clouds.3 mph94%29.83 "HgN/A
10:30 PM57 °FPassing clouds.3 mph88%29.83 "HgN/A
10:04 PM55 °FPassing clouds.5 mph94%29.83 "HgN/A
9:30 PM57 °FPassing clouds.5 mph88%29.83 "HgN/A
9:00 PM57 °FPassing clouds.3 mph88%29.83 "HgN/A
8:30 PM57 °FPassing clouds.3 mph88%29.83 "HgN/A
8:00 PM59 °FPassing clouds.2 mph82%29.83 "HgN/A
7:30 PM59 °FPassing clouds.3 mph88%29.83 "HgN/A
7:00 PM61 °FPassing clouds.2 mph83%29.83 "HgN/A
6:30 PM63 °FScattered clouds.3 mph77%29.83 "HgN/A
6:00 PM66 °FScattered clouds.2 mph68%29.83 "HgN/A
5:30 PM66 °FScattered clouds.5 mph64%29.83 "HgN/A
5:00 PM68 °FScattered clouds.5 mph60%29.83 "HgN/A
4:30 PM68 °FScattered clouds.3 mph60%29.83 "HgN/A
4:00 PM68 °FScattered clouds.5 mph60%29.83 "HgN/A
3:30 PM68 °FScattered clouds.5 mph60%29.83 "HgN/A
3:00 PM68 °FScattered clouds.5 mph60%29.83 "HgN/A
Weather by CustomWeather, © 2016

See weather overviewHow to use our weather pages